2019-05-30T18:02:36+02:00 HEAD /shop/termek/hgst-6tb-72k-sata-hdd-0b36039/1684359 HTTP/1.1
2019-05-30T18:04:03+02:00 HEAD /shop/termek/dlink-dcs4603-full-hd-poe-dome-camera/1537552 HTTP/1.1
2019-05-30T19:34:16+02:00 HEAD /shop/termek/fujitsu-lifebook-e549-vfye5490m450shu-fekete/1742416 HTTP/1.1
2019-05-31T22:07:26+02:00 HEAD /shop/termek/dlink-dwr730-mobile-wifi-hotspot-21-mbps/264208 HTTP/1.1
2019-06-02T19:10:50+02:00 HEAD /shop/termek/philips-qp253030-oneblade-borotva/1688739 HTTP/1.1
2019-06-02T19:16:54+02:00 HEAD /shop/termek/dell-wm126-fekete/1358205 HTTP/1.1
2019-06-02T19:19:37+02:00 HEAD /shop/termek/rapoo-e2710-feher/1428308 HTTP/1.1
2019-06-02T19:19:41+02:00 HEAD /shop/termek/trust-21808-gxt-890-cada-rgb-us-angol-fekete/1586769 HTTP/1.1
2019-06-02T19:19:58+02:00 HEAD /shop/termek/logitech-wireless-keyboard-k350-uk-angol/1613912 HTTP/1.1
2019-06-02T19:50:43+02:00 HEAD /shop/termek/sencor-svc-7612vt-tobbfunkcios-kezi-porszivo-2-az-1/1469862 HTTP/1.1
2019-06-02T19:51:18+02:00 HEAD /shop/termek/electrolux-zb5003w-morzsa-porszivo/1490016 HTTP/1.1
2019-06-02T20:00:52+02:00 HEAD /shop/termek/elo-2293l-e327345-adapter-nelkul/1582437 HTTP/1.1
2019-06-03T19:06:03+02:00 HEAD /shop/termek/sunne-lcda503k/182492 HTTP/1.1
2019-06-03T19:10:01+02:00 HEAD /shop/termek/philips-hp810300-salondry-hajszarito/167294 HTTP/1.1
2019-06-03T19:11:44+02:00 HEAD /shop/termek/philips-hc541015-hajvago/1328840 HTTP/1.1
2019-06-03T19:12:41+02:00 HEAD /shop/termek/delock-usb-soros-atalakito-fekete-15m-61856/184854 HTTP/1.1
2019-06-03T19:13:11+02:00 HEAD /shop/termek/equip-utp-osszekoto-szurke-20m-825419/211366 HTTP/1.1
2019-06-03T19:14:51+02:00 HEAD /shop/termek/imetec-11010-bellissima-b8-100-creativity-infrared-hajsimito/1580506 HTTP/1.1
2019-06-03T19:18:13+02:00 HEAD /shop/termek/star-wars-battlefront-ii-pc/1572806 HTTP/1.1
2019-06-03T19:18:33+02:00 HEAD /shop/termek/driveclub-ps4/530306 HTTP/1.1
2019-06-03T19:23:33+02:00 HEAD /shop/termek/razer-kraken-tournament-edition-fekete/1691495 HTTP/1.1
2019-06-03T19:29:25+02:00 HEAD /shop/termek/ariete-3016-kavedaralo/1695105 HTTP/1.1
2019-06-03T19:41:25+02:00 HEAD /shop/termek/eta-6778-90000-dori-konyhai-merleg/1660880 HTTP/1.1
2019-06-03T20:25:18+02:00 HEAD /shop/termek/trust-21717-ziva-wireless-bluetooth-speaker-piros/1578806 HTTP/1.1
2019-06-06T08:00:46+02:00 HEAD /shop/termek/rowenta-cf2112-hajsutovas-25-w-fekete/1724559 HTTP/1.1
2019-06-09T19:12:08+02:00 HEAD /shop/termek/adata-1tb-ultimate-su800-sata-3-25-asu800ss1ttc/1542164 HTTP/1.1
2019-06-09T19:16:10+02:00 HEAD /shop/termek/mode-com-mctpk2-voyager-us-angol-fekete/1585696 HTTP/1.1
2019-06-09T19:30:41+02:00 HEAD /shop/termek/lego-super-heroes-bosszuallok-a-csata-76131/1730480 HTTP/1.1
2019-06-09T19:44:57+02:00 HEAD /shop/termek/nikon-coolpix-a10-voros-basic-garancia/1348943 HTTP/1.1
2019-06-17T23:00:32+02:00 HEAD /shop/termek/lenovo-ideapad-330-81de00xhhv-feher/1664740 HTTP/1.1
2019-06-19T19:24:40+02:00 HEAD /shop/termek/bosch-smv46ax04e-serie-4-supersilence-mosogatogep-60-cm-teljesen-integralhato-keszulek/1727217 HTTP/1.1
2019-06-24T19:18:04+02:00 HEAD /shop/termek/gembird-usb-30-usb-30-type-c-atalakito-feher-1m-ccpusb3amcm1mw/1612852 HTTP/1.1
2019-06-25T14:08:58+02:00 HEAD /shop/termek/acer-acer-4in1-dongle-typecm-basic-garancia/1702527 HTTP/1.1
2019-06-25T14:08:58+02:00 HEAD /shop/termek/acer-acer-4in1-dongle-typecm-basic-garancia/1702527 HTTP/1.1
2019-06-26T00:30:20+02:00 HEAD /shop/termek/power-plus-tools-powdp1570-akkumulatoros-utvefuro-alapgep-40v-akku-es-tolto-nelkul/1697097 HTTP/1.1
2019-06-26T02:45:26+02:00 HEAD /shop/termek/gembird-usb-20-7port-hub-with-switch-feher/1673155 HTTP/1.1
2019-06-26T10:02:07+02:00 HEAD /shop/termek/wenger-cobalt-notebook-hatizsak-156-feketekek/1028854 HTTP/1.1
2019-06-26T10:03:31+02:00 HEAD /shop/termek/rexel-style+-2101944-iratmegsemmisito/503452 HTTP/1.1
2019-06-26T10:04:41+02:00 HEAD /shop/termek/natec-beaver-office-iratmegsemmisito-13l-fekete/1742975 HTTP/1.1
2019-06-26T14:07:03+02:00 HEAD /shop/termek/skymaster-moonster-lemon-squeeze-elektromos-roller-narancssarga/1752622 HTTP/1.1
2019-06-26T19:44:05+02:00 HEAD /shop/termek/hp-pavilion-x360-14cd0000nh-4tz45ea-ezust/1672294 HTTP/1.1
2019-06-26T20:05:12+02:00 HEAD /shop/termek/asus-rog-tuf-fx504geen764-fekete/1751761 HTTP/1.1
2019-06-27T10:28:29+02:00 HEAD /shop/termek/benq-ms535-basic-garancia/1708936 HTTP/1.1
2019-06-27T10:33:56+02:00 HEAD /shop/termek/bosch-muz45rv1-reszelo-elotet/1466720 HTTP/1.1
2019-06-27T12:14:51+02:00 HEAD /shop/termek/plantronics-e55-fekete/1652270 HTTP/1.1
2019-06-27T14:25:24+02:00 HEAD /shop/termek/prestigio-roadrunner-140/1545349 HTTP/1.1
2019-06-27T16:12:41+02:00 HEAD /shop/termek/hp-cf210x-eredeti-basic-garancia/1650985 HTTP/1.1
2019-06-27T16:15:16+02:00 HEAD /shop/termek/hp-cb540a-ecopixel/1570844 HTTP/1.1
2019-06-27T16:19:10+02:00 HEAD /shop/termek/hp-cf212a-colorovo/668605 HTTP/1.1
2019-06-27T16:36:09+02:00 HEAD /shop/termek/sencor-scj-9000np-citromfacsaro/1679616 HTTP/1.1
2019-06-27T19:40:18+02:00 HEAD /shop/termek/dell-vostro-14-5471-37115-ezust/1724450 HTTP/1.1
2019-06-26T19:44:05+02:00 HEAD /shop/termek/hp-pavilion-x360-14cd0000nh-4tz45ea-ezust/1672294 HTTP/1.1
2019-06-26T20:05:12+02:00 HEAD /shop/termek/asus-rog-tuf-fx504geen764-fekete/1751761 HTTP/1.1
2019-06-27T10:28:29+02:00 HEAD /shop/termek/benq-ms535-basic-garancia/1708936 HTTP/1.1
2019-06-27T10:33:56+02:00 HEAD /shop/termek/bosch-muz45rv1-reszelo-elotet/1466720 HTTP/1.1
2019-06-27T12:14:51+02:00 HEAD /shop/termek/plantronics-e55-fekete/1652270 HTTP/1.1
2019-06-27T14:25:24+02:00 HEAD /shop/termek/prestigio-roadrunner-140/1545349 HTTP/1.1
2019-06-27T16:12:41+02:00 HEAD /shop/termek/hp-cf210x-eredeti-basic-garancia/1650985 HTTP/1.1
2019-06-27T16:15:16+02:00 HEAD /shop/termek/hp-cb540a-ecopixel/1570844 HTTP/1.1
2019-06-27T16:19:10+02:00 HEAD /shop/termek/hp-cf212a-colorovo/668605 HTTP/1.1
2019-06-27T16:36:09+02:00 HEAD /shop/termek/sencor-scj-9000np-citromfacsaro/1679616 HTTP/1.1
2019-06-27T19:40:18+02:00 HEAD /shop/termek/dell-vostro-14-5471-37115-ezust/1724450 HTTP/1.1
2019-06-28T10:09:38+02:00 HEAD /shop/termek/zalman-t1-plus/577710 HTTP/1.1
2019-06-28T22:12:41+02:00 HEAD /shop/termek/rivacase-3017-tablet-case-101-lila/1242197 HTTP/1.1
2019-06-29T06:02:27+02:00 HEAD /shop/termek/netgear-r8000-ac3200-nighthawk-x6/1005525 HTTP/1.1
2019-06-29T18:01:33+02:00 HEAD /shop/termek/asus-h110mam2/1461960 HTTP/1.1
2019-06-29T18:02:20+02:00 HEAD /shop/termek/asrock-b450mpro4/1670149 HTTP/1.1
2019-06-29T18:02:28+02:00 HEAD /shop/termek/gigabyte-gaa320ms2h/1623487 HTTP/1.1
2019-06-29T18:05:55+02:00 HEAD /shop/termek/asus-prime-h270plus/1543285 HTTP/1.1
2019-06-29T20:00:08+02:00 HEAD /shop/termek/wd-blue-mobile-pc-drive-2tb-25-5400rpm-128mb-sata3-wd20spzx/1638551 HTTP/1.1
2019-06-29T20:01:26+02:00 HEAD /shop/termek/seagate-barracuda-1tb-35-7200rpm-64mb-sata3-st1000dm010/1510290 HTTP/1.1
2019-06-29T20:05:35+02:00 HEAD /shop/termek/swann-1080p-bullet-nvr-security-camera/1748534 HTTP/1.1
2019-06-30T06:47:27+02:00 HEAD /shop/termek/tplink-mc200cm-gigabites-multimodu-media-konverter/41276 HTTP/1.1
2019-06-30T08:23:39+02:00 HEAD /shop/termek/nedis-peth110dwt-digitalis-homero-60-masodperc-automatikus-kikapcsolas/1710375 HTTP/1.1
2019-06-30T09:15:55+02:00 HEAD /shop/termek/nokia-steelsteel-hr-szilikon-szij-zoldeskek/1596679 HTTP/1.1
2019-06-30T10:48:10+02:00 HEAD /shop/termek/hp-otthoni-es-irodai-papir-a4-500-lap-chp150/31592 HTTP/1.1
2019-06-30T13:29:29+02:00 HEAD /shop/termek/pilot-rollertoll-035-mm-torolheto-frixion-clicker-vilagoskek/679246 HTTP/1.1
2019-06-30T13:30:16+02:00 HEAD /shop/termek/troika-rollertoll-tolltartoban-utantoltovel-world-in-your-hand-fekete/1674135 HTTP/1.1
2019-06-30T15:32:31+02:00 HEAD /shop/termek/brother-tzes231-eredeti/215015 HTTP/1.1
2019-06-30T19:16:53+02:00 HEAD /shop/termek/gigabyte-gvn730d32gi-geforce-gt-730-2gb-ddr3-pcie/796792 HTTP/1.1
2019-06-30T19:20:23+02:00 HEAD /shop/termek/canyon-cndcmsw400-feketeszarvas/1702589 HTTP/1.1
2019-06-30T19:22:18+02:00 HEAD /shop/termek/logitech-m170-szurke/1378223 HTTP/1.1